Weather reports worldwide

Advertisment
Gogerddan, United Kingdom (99150): temperature & dewpoint: 04.07.2020 03:00:00 - 10.07.2020 03:00:00 (BST)Gogerddan, United Kingdom (99150): temperature -20cm & temperature -100cm: 04.07.2020 03:00:00 - 10.07.2020 03:00:00 (BST)Gogerddan, United Kingdom (99150): precipitation: 04.07.2020 03:00:00 - 10.07.2020 03:00:00 (BST)
Date & Time tt [°C] td [°C] tt -20cm [°C] tt -100cm [°C] rr [mm]
10.07.2020 03:00:00 10,6 8,1 - - 0,0
10.07.2020 02:00:00 9,4 8,8 - - 0,0
10.07.2020 01:00:00 9,5 8,6 - - 0,0
10.07.2020 00:00:00 11,3 10,0 - - 0,0
09.07.2020 23:00:00 12,9 10,3 - - 0,0
09.07.2020 22:00:00 13,5 11,4 - - 0,0
09.07.2020 21:00:00 14,1 11,7 - - 0,0
09.07.2020 20:00:00 14,3 12,5 - - 0,0
09.07.2020 19:00:00 14,2 12,9 - - 0,0
09.07.2020 18:00:00 15,1 13,1 - - 0,0
09.07.2020 17:00:00 15,5 13,8 - - 0,0
09.07.2020 16:00:00 15,8 13,8 - - 0,0
09.07.2020 15:00:00 17,5 14,6 - - 0,0
09.07.2020 14:00:00 16,1 14,2 - - 0,0
09.07.2020 13:00:00 15,2 14,3 - - 0,0
09.07.2020 12:00:00 15,6 14,5 - - 0,0
09.07.2020 11:00:00 15,5 14,5 - - 0,2
09.07.2020 10:00:00 15,1 14,7 16,2 14,9 0,0
09.07.2020 09:00:00 14,7 14,4 - - 0,4
09.07.2020 08:00:00 14,2 13,9 - - 1,4
09.07.2020 07:00:00 14,7 14,3 - - 2,6
09.07.2020 06:00:00 14,9 14,6 - - 3,8
09.07.2020 05:00:00 15,0 14,7 - - 3,2
09.07.2020 04:00:00 15,0 14,7 - - 1,6
09.07.2020 03:00:00 15,0 14,7 - - 0,8
09.07.2020 02:00:00 15,0 14,6 - - 0,8
09.07.2020 01:00:00 15,1 14,6 - - 0,6
09.07.2020 00:00:00 15,2 14,7 - - 1,0
08.07.2020 23:00:00 15,3 14,8 - - 2,4
08.07.2020 22:00:00 15,4 14,9 - - 3,2
08.07.2020 21:00:00 15,4 15,0 - - 0,2
08.07.2020 20:00:00 14,9 14,4 - - 0,8
08.07.2020 19:00:00 15,0 14,4 - - 0,6
08.07.2020 18:00:00 14,6 14,0 - - 1,4
08.07.2020 17:00:00 14,4 13,5 - - 2,6
08.07.2020 16:00:00 14,4 13,4 - - 2,0
08.07.2020 15:00:00 15,5 13,5 - - 0,0
08.07.2020 14:00:00 16,9 14,6 - - 0,0
08.07.2020 13:00:00 15,9 14,0 - - 0,0
08.07.2020 12:00:00 16,9 14,9 - - 0,0
08.07.2020 11:00:00 15,2 14,2 - - 0,0
08.07.2020 10:00:00 14,7 14,1 15,7 14,9 0,0
08.07.2020 09:00:00 14,7 14,3 - - 0,0
08.07.2020 08:00:00 14,4 14,1 - - 0,0
08.07.2020 07:00:00 14,2 14,0 - - 0,2
08.07.2020 06:00:00 14,3 14,0 - - 1,4
08.07.2020 05:00:00 14,1 13,9 - - 0,8
08.07.2020 04:00:00 14,1 13,8 - - 2,2
08.07.2020 03:00:00 13,9 13,7 - - 1,6
08.07.2020 02:00:00 14,0 13,7 - - 0,2
08.07.2020 01:00:00 14,0 13,7 - - 0,0
08.07.2020 00:00:00 14,0 13,7 - - 0,2
07.07.2020 23:00:00 14,1 13,7 - - 1,0
07.07.2020 22:00:00 14,2 13,8 - - 3,2
07.07.2020 21:00:00 14,2 13,8 - - 5,0
07.07.2020 20:00:00 14,3 13,9 - - 5,2
07.07.2020 19:00:00 14,1 13,7 - - 0,8
07.07.2020 18:00:00 13,9 13,4 - - 1,0
07.07.2020 17:00:00 13,4 12,8 - - 1,4
07.07.2020 16:00:00 13,0 12,3 - - 2,4
07.07.2020 15:00:00 12,7 11,7 - - 1,6
07.07.2020 14:00:00 12,2 10,6 - - 0,6
07.07.2020 13:00:00 12,5 10,0 - - 0,2
07.07.2020 12:00:00 14,0 10,5 - - 0,0
07.07.2020 11:00:00 13,2 10,1 - - 0,0
07.07.2020 10:00:00 12,9 11,0 16,0 14,9 0,2
07.07.2020 09:00:00 13,4 11,1 - - 0,0
07.07.2020 08:00:00 13,6 11,2 - - 0,0
07.07.2020 07:00:00 13,1 10,7 - - 0,0
07.07.2020 06:00:00 12,7 10,6 - - 0,0
07.07.2020 05:00:00 12,8 11,1 - - 0,0
07.07.2020 04:00:00 13,6 11,7 - - 0,0
07.07.2020 03:00:00 13,6 11,5 - - 0,0
07.07.2020 02:00:00 13,7 11,4 - - 0,0
07.07.2020 01:00:00 13,6 11,4 - - 0,0
07.07.2020 00:00:00 13,4 11,9 - - 0,0
06.07.2020 23:00:00 13,3 11,6 - - 0,0
06.07.2020 22:00:00 14,0 11,5 - - 0,0
06.07.2020 21:00:00 14,3 10,2 - - 0,0
06.07.2020 20:00:00 14,5 10,7 - - 0,0
06.07.2020 19:00:00 15,2 9,9 - - 0,0
06.07.2020 18:00:00 15,6 9,9 - - 0,0
06.07.2020 17:00:00 16,3 10,2 - - 0,0
06.07.2020 16:00:00 16,4 10,7 - - 0,0
06.07.2020 15:00:00 17,1 9,6 - - 0,0
06.07.2020 14:00:00 16,4 9,8 - - 0,0
06.07.2020 13:00:00 16,3 11,1 - - 0,0
06.07.2020 12:00:00 15,1 10,9 - - 0,0
06.07.2020 11:00:00 14,1 10,7 - - 0,0
06.07.2020 10:00:00 13,5 10,0 15,7 14,9 0,0
06.07.2020 09:00:00 12,9 9,0 - - 0,0
06.07.2020 08:00:00 13,0 9,1 - - 0,0
06.07.2020 07:00:00 12,8 9,4 - - 0,0
06.07.2020 06:00:00 12,6 9,1 - - 0,0
06.07.2020 05:00:00 12,9 9,4 - - 0,0
06.07.2020 04:00:00 12,7 9,4 - - 0,0
06.07.2020 03:00:00 12,8 9,8 - - 0,0
06.07.2020 02:00:00 13,3 9,8 - - 0,0
06.07.2020 01:00:00 13,6 9,3 - - 0,0
06.07.2020 00:00:00 13,8 9,6 - - 0,0
05.07.2020 23:00:00 13,8 9,7 - - 0,0
05.07.2020 22:00:00 13,9 9,7 - - 0,0
05.07.2020 21:00:00 14,2 10,4 - - 0,0
05.07.2020 20:00:00 14,2 10,2 - - 0,0
05.07.2020 19:00:00 14,5 10,0 - - 0,0
05.07.2020 18:00:00 14,9 10,4 - - 0,0
05.07.2020 17:00:00 15,3 11,0 - - 0,0
05.07.2020 16:00:00 15,4 11,3 - - 0,0
05.07.2020 15:00:00 14,7 10,1 - - 0,0
05.07.2020 14:00:00 15,3 10,2 - - 0,0
05.07.2020 13:00:00 14,8 9,9 - - 0,0
05.07.2020 12:00:00 15,1 9,8 - - 0,0
05.07.2020 11:00:00 14,5 10,3 - - 0,0
05.07.2020 10:00:00 14,2 8,6 15,9 14,9 0,0
05.07.2020 09:00:00 14,1 8,6 - - 0,0
05.07.2020 08:00:00 13,7 8,9 - - 0,0
05.07.2020 07:00:00 13,7 9,0 - - 0,0
05.07.2020 06:00:00 14,2 12,1 - - 0,0
05.07.2020 05:00:00 14,5 13,0 - - 0,0
05.07.2020 04:00:00 15,0 13,6 - - 0,0
05.07.2020 03:00:00 15,7 14,1 - - 0,0
05.07.2020 02:00:00 15,6 14,8 - - 0,2
05.07.2020 01:00:00 16,0 15,1 - - 1,2
05.07.2020 00:00:00 15,7 14,8 - - 1,2
04.07.2020 23:00:00 16,2 14,8 - - 0,0
04.07.2020 22:00:00 15,9 14,0 - - 0,0
04.07.2020 21:00:00 16,0 14,1 - - 0,0
04.07.2020 20:00:00 16,2 14,2 - - 0,0
04.07.2020 19:00:00 16,0 14,5 - - 0,0
04.07.2020 18:00:00 15,7 14,5 - - 0,0
04.07.2020 17:00:00 16,0 14,8 - - 0,0
04.07.2020 16:00:00 16,5 15,3 - - 0,0
04.07.2020 15:00:00 15,9 15,1 - - 0,8
04.07.2020 14:00:00 15,5 15,0 - - 0,4
04.07.2020 13:00:00 15,2 14,6 - - 1,0
04.07.2020 12:00:00 15,3 14,7 - - 0,2
04.07.2020 11:00:00 14,9 14,4 - - 1,2
04.07.2020 10:00:00 14,6 13,8 15,7 14,9 0,6
04.07.2020 09:00:00 14,8 14,1 - - 0,4
04.07.2020 08:00:00 14,8 13,9 - - 0,4
04.07.2020 07:00:00 14,9 14,0 - - 0,0
04.07.2020 06:00:00 15,0 14,1 - - 0,0
04.07.2020 05:00:00 15,1 14,4 - - 0,0
04.07.2020 04:00:00 15,2 14,7 - - 0,2
04.07.2020 03:00:00 15,3 14,8 - - 1,0

tt = temperature
td = dewpoint
tt -20cm = temperature -20cm
tt -100cm = temperature -100cm
rr = precipitation

Next stations